Regional Weather Roundup
Issued by NWS

Home | Current Version | Previous Version | Text Only | Print | Product List | Glossary Off
Versions: 1 2 3 4 5 6 7 8 9 10 11 12 13 14 15 16 17 18 19 20 21 22 23 24 25 26 27 28 29 30 31 32 33 34 35 36 37 38 39 40 41 42 43 44 45 46 47 48 49 50

470
ASUS43 KFSD 221802
RWRSD

WEATHER ROUNDUP FOR SOUTH DAKOTA
NATIONAL WEATHER SERVICE SIOUX FALLS SD
100 PM CDT FRI MAY 22 2015

NOTE: "FAIR" INDICATES FEW OR NO CLOUDS BELOW 12,000 FEET WITH NO
SIGNIFICANT WEATHER AND/OR OBSTRUCTIONS TO VISIBILITY.


SDZ001>005-009-010-012>017-221900-
NORTHWEST AND NORTH CENTRAL SOUTH DAKOTA

CITY           SKY/WX    TMP DP  RH WIND       PRES   REMARKS
BUFFALO          N/A     64  40  41 SE25G32   30.01F
MOBRIDGE       SUNNY     74  35  24 SE17      30.12F
$$

SDZ012>016-024>037-041>051-057-063-072>074-221900-
SOUTHWEST AND SOUTH CENTRAL SOUTH DAKOTA

CITY           SKY/WX    TMP DP  RH WIND       PRES   REMARKS
RAPID CTY ARPT CLOUDY    58  45  62 S16G22    30.09F
PIERRE         PTSUNNY   72  38  29 SE18      30.13F
CUSTER         CLOUDY    46  39  76 SE10G18   30.11S
ELLSWORTH AFB  CLOUDY    59  45  59 S13       30.08F
PHILIP         PTSUNNY   68  38  33 SE23G31   30.10F
PINE RIDGE     CLOUDY    57  40  52 SE18G25   30.10F
WINNER         FAIR      68  38  33 SE15      30.16S
$$

SDZ004>011-016>023-039-040-221900-
NORTHEAST SOUTH DAKOTA

CITY           SKY/WX    TMP DP  RH WIND       PRES   REMARKS
ABERDEEN       SUNNY     74  38  27 VRB7      30.17F
WATERTOWN      SUNNY     72  37  28 VRB5      30.20S
BROOKINGS      SUNNY     70  36  28 E6        30.20F
$$

SDZ017-020-022-023-036>040-048>070-221900-
SOUTHEAST SOUTH DAKOTA

CITY           SKY/WX    TMP DP  RH WIND       PRES   REMARKS
SIOUX FALLS    CLOUDY    73  41  31 NE5       30.20S
HURON          SUNNY     73  38  27 SE6       30.18S
CHAMBERLAIN    MOSUNNY   69  38  32 SE20G25   30.17S
MITCHELL       MOSUNNY   73  39  29 S8        30.19S
YANKTON        PTSUNNY   70  39  32 SE12G17   30.19F
$$

ABBREVIATIONS USED IN REMARKS
   TC - TEMPERATURE IN CELSIUS
  WCI - WIND CHILL INDEX
   HX - HEAT INDEX
  VSB - VISIBILITY




USA.gov is the U.S. government's official web portal to all federal, state and local government web resources and services.